Time,TemperatureF,DewpointF,PressureIn,WindDirection,WindDirectionDegrees,WindSpeedMPH,WindSpeedGustMPH,Humidity,HourlyPrecipIn,Conditions,Clouds,dailyrainin,SoftwareType,DateUTC
2013-01-29 13:28:00,66.6,60.6,29.31,SE,139,5.0,6.0,81,0.00,,,0.00,Wunderground v.1.15,2013-01-29 19:28:00,
2013-01-29 13:33:00,66.9,60.5,29.31,ENE,63,13.0,15.0,80,0.00,,,0.00,Wunderground v.1.15,2013-01-29 19:33:00,
2013-01-29 13:38:00,66.9,60.5,29.31,SSE,167,11.0,16.0,80,0.00,,,0.00,Wunderground v.1.15,2013-01-29 19:38:00,
2013-01-29 13:43:00,66.8,60.4,29.31,South,169,5.0,16.0,80,0.00,,,0.00,Wunderground v.1.15,2013-01-29 19:43:00,
2013-01-29 13:48:00,66.8,60.4,29.31,NNE,27,8.0,15.0,80,0.00,,,0.00,Wunderground v.1.15,2013-01-29 19:48:00,
2013-01-29 13:53:00,66.7,60.7,29.30,ESE,105,5.0,16.0,81,0.00,,,0.00,Wunderground v.1.15,2013-01-29 19:53:00,
2013-01-29 13:57:00,66.7,60.7,29.30,SSE,167,11.0,16.0,81,0.00,,,0.00,Wunderground v.1.15,2013-01-29 19:57:00,
2013-01-29 14:02:00,66.8,60.8,29.30,SE,138,13.0,14.0,81,0.00,,,0.00,Wunderground v.1.15,2013-01-29 20:02:00,
2013-01-29 14:07:00,67.1,60.7,29.30,ENE,72,11.0,17.0,80,0.00,,,0.00,Wunderground v.1.15,2013-01-29 20:07:00,
2013-01-29 14:36:00,67.4,61.0,29.28,East,88,5.0,8.0,80,0.00,,,0.00,Wunderground v.1.15,2013-01-29 20:36:00,
2013-01-29 14:41:00,67.6,60.9,29.27,SE,132,9.0,17.0,79,0.00,,,0.00,Wunderground v.1.15,2013-01-29 20:41:00,
2013-01-29 14:46:00,67.7,61.0,29.27,ENE,78,9.0,10.0,79,0.00,,,0.00,Wunderground v.1.15,2013-01-29 20:46:00,
2013-01-29 14:51:00,68.0,61.2,29.27,ENE,67,8.0,16.0,79,0.00,,,0.00,Wunderground v.1.15,2013-01-29 20:51:00,
2013-01-29 14:56:00,68.2,61.1,29.27,SSE,166,13.0,14.0,78,0.00,,,0.00,Wunderground v.1.15,2013-01-29 20:56:00,
2013-01-29 15:01:00,68.1,61.3,29.27,East,96,10.0,14.0,79,0.00,,,0.00,Wunderground v.1.15,2013-01-29 21:01:00,
2013-01-29 15:06:00,67.9,61.1,29.27,SSE,153,9.0,17.0,79,0.00,,,0.00,Wunderground v.1.15,2013-01-29 21:06:00,
2013-01-29 15:11:00,67.7,61.0,29.27,ESE,104,5.0,11.0,79,0.00,,,0.00,Wunderground v.1.15,2013-01-29 21:11:00,
2013-01-29 15:16:00,67.8,61.0,29.26,SSE,149,10.0,15.0,79,0.00,,,0.00,Wunderground v.1.15,2013-01-29 21:16:00,
2013-01-29 15:21:00,68.0,61.2,29.26,SSE,166,11.0,14.0,79,0.00,,,0.00,Wunderground v.1.15,2013-01-29 21:21:00,
2013-01-29 15:26:00,68.0,61.2,29.26,SE,142,6.0,18.0,79,0.00,,,0.00,Wunderground v.1.15,2013-01-29 21:26:00,
2013-01-29 15:31:00,67.9,61.1,29.26,East,92,10.0,12.0,79,0.00,,,0.00,Wunderground v.1.15,2013-01-29 21:31:00,
2013-01-29 15:36:00,67.7,61.3,29.26,SSE,148,6.0,17.0,80,0.00,,,0.00,Wunderground v.1.15,2013-01-29 21:36:00,
2013-01-29 15:41:00,67.6,61.2,29.26,SSE,155,3.0,11.0,80,0.00,,,0.00,Wunderground v.1.15,2013-01-29 21:41:00,
2013-01-29 15:46:00,67.5,61.1,29.25,East,101,12.0,16.0,80,0.00,,,0.00,Wunderground v.1.15,2013-01-29 21:46:00,
2013-01-29 15:51:00,67.5,61.1,29.25,ESE,122,7.0,15.0,80,0.00,,,0.00,Wunderground v.1.15,2013-01-29 21:51:00,
2013-01-29 15:56:00,67.7,61.3,29.25,ESE,105,5.0,15.0,80,0.00,,,0.00,Wunderground v.1.15,2013-01-29 21:56:00,
2013-01-29 16:01:00,67.9,61.5,29.24,South,184,3.0,10.0,80,0.00,,,0.00,Wunderground v.1.15,2013-01-29 22:01:00,
2013-01-29 16:06:00,68.2,61.4,29.24,SE,132,6.0,15.0,79,0.00,,,0.00,Wunderground v.1.15,2013-01-29 22:06:00,
2013-01-29 16:11:00,68.4,61.6,29.25,ESE,118,6.0,16.0,79,0.00,,,0.00,Wunderground v.1.15,2013-01-29 22:11:00,
2013-01-29 16:16:00,68.4,61.6,29.25,ESE,108,8.0,16.0,79,0.00,,,0.00,Wunderground v.1.15,2013-01-29 22:16:00,
2013-01-29 16:21:00,68.3,61.5,29.24,SSE,166,7.0,15.0,79,0.00,,,0.00,Wunderground v.1.15,2013-01-29 22:21:00,
2013-01-29 16:27:00,67.9,61.5,29.24,East,93,12.0,15.0,80,0.00,,,0.00,Wunderground v.1.15,2013-01-29 22:27:00,
2013-01-29 16:32:00,67.7,61.3,29.24,East,86,4.0,9.0,80,0.00,,,0.00,Wunderground v.1.15,2013-01-29 22:32:00,
2013-01-29 16:39:00,67.4,61.4,29.24,SE,128,7.0,11.0,81,0.00,,,0.00,Wunderground v.1.15,2013-01-29 22:39:00,
2013-01-29 16:44:00,67.2,61.2,29.24,East,91,5.0,8.0,81,0.00,,,0.00,Wunderground v.1.15,2013-01-29 22:44:00,
2013-01-29 16:49:00,67.1,61.4,29.23,East,80,7.0,16.0,82,0.00,,,0.00,Wunderground v.1.15,2013-01-29 22:49:00,
2013-01-29 16:54:00,67.0,61.3,29.23,East,96,7.0,13.0,82,0.00,,,0.00,Wunderground v.1.15,2013-01-29 22:54:00,
2013-01-29 16:59:00,66.9,61.2,29.23,ENE,70,5.0,13.0,82,0.00,,,0.00,Wunderground v.1.15,2013-01-29 22:59:00,
2013-01-29 17:04:00,67.0,61.3,29.23,SE,132,5.0,11.0,82,0.00,,,0.00,Wunderground v.1.15,2013-01-29 23:04:00,
2013-01-29 17:09:00,67.1,61.4,29.23,ESE,108,5.0,12.0,82,0.00,,,0.00,Wunderground v.1.15,2013-01-29 23:09:00,
2013-01-29 17:14:00,67.2,61.5,29.23,East,98,6.0,13.0,82,0.00,,,0.00,Wunderground v.1.15,2013-01-29 23:14:00,
2013-01-29 17:19:00,67.2,61.2,29.23,East,100,6.0,13.0,81,0.00,,,0.00,Wunderground v.1.15,2013-01-29 23:19:00,
2013-01-29 17:24:00,67.3,61.3,29.23,SSW,194,7.0,13.0,81,0.00,,,0.00,Wunderground v.1.15,2013-01-29 23:24:00,
2013-01-29 17:29:00,67.4,61.4,29.23,SE,141,4.0,13.0,81,0.00,,,0.00,Wunderground v.1.15,2013-01-29 23:29:00,
2013-01-29 17:34:00,67.3,61.3,29.23,East,91,2.0,11.0,81,0.00,,,0.00,Wunderground v.1.15,2013-01-29 23:34:00,
2013-01-29 17:39:00,67.3,61.6,29.23,ENE,60,6.0,11.0,82,0.00,,,0.00,Wunderground v.1.15,2013-01-29 23:39:00,
2013-01-29 17:44:00,67.3,61.6,29.23,SSE,149,4.0,10.0,82,0.00,,,0.00,Wunderground v.1.15,2013-01-29 23:44:00,
2013-01-29 17:49:00,67.2,61.5,29.22,SE,136,3.0,10.0,82,0.00,,,0.00,Wunderground v.1.15,2013-01-29 23:49:00,
2013-01-29 17:54:00,67.2,61.5,29.22,East,84,7.0,10.0,82,0.00,,,0.00,Wunderground v.1.15,2013-01-29 23:54:00,
2013-01-29 17:59:00,67.2,61.5,29.22,ESE,108,4.0,10.0,82,0.00,,,0.00,Wunderground v.1.15,2013-01-29 23:59:00,
2013-01-29 18:34:00,67.2,61.9,29.20,SE,142,6.0,8.0,83,0.00,,,0.00,Wunderground v.1.15,2013-01-30 00:34:00,
2013-01-29 18:39:00,67.1,61.8,29.20,East,84,7.0,13.0,83,0.00,,,0.00,Wunderground v.1.15,2013-01-30 00:39:00,
2013-01-29 18:44:00,67.0,61.7,29.19,NE,54,4.0,10.0,83,0.00,,,0.00,Wunderground v.1.15,2013-01-30 00:44:00,
2013-01-29 18:49:00,66.9,61.6,29.18,NE,43,6.0,14.0,83,0.00,,,0.00,Wunderground v.1.15,2013-01-30 00:49:00,
2013-01-29 18:54:00,66.6,61.3,29.18,ENE,68,9.0,11.0,83,0.00,,,0.00,Wunderground v.1.15,2013-01-30 00:54:00,
2013-01-29 18:59:00,66.6,61.3,29.17,ENE,60,6.0,11.0,83,0.00,,,0.00,Wunderground v.1.15,2013-01-30 00:59:00,
2013-01-29 19:04:00,66.5,61.2,29.17,ESE,111,6.0,13.0,83,0.00,,,0.00,Wunderground v.1.15,2013-01-30 01:04:00,
2013-01-29 19:09:00,66.4,61.1,29.16,SSE,148,5.0,13.0,83,0.00,,,0.00,Wunderground v.1.15,2013-01-30 01:09:00,
2013-01-29 19:14:00,66.4,61.1,29.16,ESE,111,11.0,16.0,83,0.00,,,0.00,Wunderground v.1.15,2013-01-30 01:14:00,
2013-01-29 19:19:00,66.7,61.4,29.15,East,84,10.0,16.0,83,0.00,,,0.00,Wunderground v.1.15,2013-01-30 01:19:00,
2013-01-29 19:24:00,66.9,61.6,29.15,ENE,73,10.0,15.0,83,0.00,,,0.00,Wunderground v.1.15,2013-01-30 01:24:00,
2013-01-29 19:29:00,66.9,61.2,29.14,ENE,71,6.0,16.0,82,0.00,,,0.00,Wunderground v.1.15,2013-01-30 01:29:00,
2013-01-29 19:34:00,67.0,61.3,29.13,ENE,64,13.0,14.0,82,0.00,,,0.00,Wunderground v.1.15,2013-01-30 01:34:00,
2013-01-29 19:39:00,67.2,61.5,29.13,ENE,60,11.0,18.0,82,0.00,,,0.00,Wunderground v.1.15,2013-01-30 01:39:00,
2013-01-29 19:44:00,67.6,61.6,29.13,ENE,71,12.0,21.0,81,0.00,,,0.00,Wunderground v.1.15,2013-01-30 01:44:00,
2013-01-29 19:49:00,67.7,61.7,29.12,ENE,72,12.0,21.0,81,0.00,,,0.00,Wunderground v.1.15,2013-01-30 01:49:00,
2013-01-29 19:54:00,67.9,61.9,29.12,East,84,13.0,21.0,81,0.00,,,0.00,Wunderground v.1.15,2013-01-30 01:54:00,
2013-01-29 19:59:00,68.2,61.8,29.11,South,177,13.0,25.0,80,0.00,,,0.00,Wunderground v.1.15,2013-01-30 01:59:00,
2013-01-29 20:04:00,68.4,62.0,29.11,ESE,105,13.0,19.0,80,0.00,,,0.00,Wunderground v.1.15,2013-01-30 02:04:00,
2013-01-29 20:09:00,68.5,62.1,29.10,ENE,74,13.0,21.0,80,0.00,,,0.00,Wunderground v.1.15,2013-01-30 02:09:00,
2013-01-29 20:14:00,68.6,62.2,29.10,ENE,64,13.0,22.0,80,0.00,,,0.00,Wunderground v.1.15,2013-01-30 02:14:00,
2013-01-29 20:19:00,68.8,62.0,29.10,South,172,9.0,22.0,79,0.00,,,0.00,Wunderground v.1.15,2013-01-30 02:19:00,
2013-01-29 20:24:00,68.9,62.1,29.10,East,82,11.0,19.0,79,0.00,,,0.00,Wunderground v.1.15,2013-01-30 02:24:00,
2013-01-29 20:29:00,69.0,62.2,29.09,NE,51,16.0,23.0,79,0.00,,,0.00,Wunderground v.1.15,2013-01-30 02:29:00,
2013-01-29 20:34:00,69.2,62.4,29.09,ESE,113,10.0,22.0,79,0.00,,,0.00,Wunderground v.1.15,2013-01-30 02:34:00,
2013-01-29 20:39:00,69.3,62.5,29.08,ENE,72,14.0,22.0,79,0.00,,,0.00,Wunderground v.1.15,2013-01-30 02:39:00,
2013-01-29 20:44:00,69.4,62.6,29.07,East,84,14.0,26.0,79,0.00,,,0.00,Wunderground v.1.15,2013-01-30 02:44:00,
2013-01-29 20:49:00,69.4,62.6,29.07,East,85,20.0,27.0,79,0.00,,,0.00,Wunderground v.1.15,2013-01-30 02:49:00,
2013-01-29 20:54:00,69.4,62.6,29.07,ESE,103,14.0,24.0,79,0.00,,,0.00,Wunderground v.1.15,2013-01-30 02:54:00,
2013-01-29 20:59:00,69.5,62.7,29.06,East,86,15.0,25.0,79,0.00,,,0.00,Wunderground v.1.15,2013-01-30 02:59:00,
2013-01-29 21:04:00,69.5,62.7,29.06,East,91,24.0,26.0,79,0.00,,,0.00,Wunderground v.1.15,2013-01-30 03:04:00,
2013-01-29 21:09:00,69.7,62.9,29.05,NE,53,23.0,31.0,79,0.00,,,0.00,Wunderground v.1.15,2013-01-30 03:09:00,
2013-01-29 21:14:00,69.8,63.0,29.05,SE,127,13.0,29.0,79,0.00,,,0.00,Wunderground v.1.15,2013-01-30 03:14:00,
2013-01-29 21:19:00,69.8,63.0,29.06,East,98,19.0,29.0,79,0.00,,,0.00,Wunderground v.1.15,2013-01-30 03:19:00,
2013-01-29 21:24:00,69.9,63.1,29.05,ENE,75,13.0,25.0,79,0.00,,,0.00,Wunderground v.1.15,2013-01-30 03:24:00,
2013-01-29 21:29:00,70.0,63.2,29.04,East,88,20.0,25.0,79,0.00,,,0.00,Wunderground v.1.15,2013-01-30 03:29:00,
2013-01-29 21:34:00,70.1,63.3,29.04,East,92,15.0,26.0,79,0.00,,,0.00,Wunderground v.1.15,2013-01-30 03:34:00,
2013-01-29 21:39:00,70.5,63.3,29.03,SE,146,10.0,29.0,78,0.00,,,0.00,Wunderground v.1.15,2013-01-30 03:39:00,
2013-01-29 21:44:00,70.6,63.4,29.03,SW,215,12.0,22.0,78,0.00,,,0.00,Wunderground v.1.15,2013-01-30 03:44:00,
2013-01-29 21:49:00,70.7,63.1,29.02,East,92,14.0,27.0,77,0.00,,,0.00,Wunderground v.1.15,2013-01-30 03:49:00,
2013-01-29 21:54:00,70.8,63.2,29.01,SE,135,19.0,28.0,77,0.00,,,0.00,Wunderground v.1.15,2013-01-30 03:54:00,
2013-01-29 21:59:00,71.0,63.1,29.01,NNW,344,7.0,28.0,76,0.00,,,0.00,Wunderground v.1.15,2013-01-30 03:59:00,
2013-01-29 22:04:00,71.1,63.1,29.01,East,98,14.0,24.0,76,0.00,,,0.00,Wunderground v.1.15,2013-01-30 04:04:00,
2013-01-29 22:09:00,71.1,63.1,29.01,East,98,12.0,24.0,76,0.00,,,0.00,Wunderground v.1.15,2013-01-30 04:09:00,
2013-01-29 22:14:00,71.2,63.2,29.00,SSE,150,9.0,26.0,76,0.00,,,0.00,Wunderground v.1.15,2013-01-30 04:14:00,
2013-01-29 22:19:00,71.3,63.3,29.00,East,89,7.0,30.0,76,0.00,,,0.00,Wunderground v.1.15,2013-01-30 04:19:00,
2013-01-29 22:24:00,71.2,63.2,28.99,ESE,103,11.0,21.0,76,0.00,,,0.00,Wunderground v.1.15,2013-01-30 04:24:00,
2013-01-29 22:29:00,71.2,63.2,28.99,ESE,104,13.0,22.0,76,0.00,,,0.00,Wunderground v.1.15,2013-01-30 04:29:00,
2013-01-29 22:34:00,71.5,63.2,28.99,SE,136,12.0,25.0,75,0.00,,,0.00,Wunderground v.1.15,2013-01-30 04:34:00,
2013-01-29 22:39:00,71.7,63.0,28.98,ESE,115,10.0,29.0,74,0.00,,,0.00,Wunderground v.1.15,2013-01-30 04:39:00,
2013-01-29 22:44:00,71.8,63.1,28.98,SE,136,8.0,24.0,74,0.00,,,0.00,Wunderground v.1.15,2013-01-30 04:44:00,
2013-01-29 22:49:00,72.0,62.9,28.98,SSE,147,11.0,24.0,73,0.00,,,0.00,Wunderground v.1.15,2013-01-30 04:49:00,
2013-01-29 22:54:00,72.0,62.9,28.97,SSE,165,16.0,22.0,73,0.00,,,0.00,Wunderground v.1.15,2013-01-30 04:54:00,
2013-01-29 22:59:00,72.0,63.3,28.97,East,79,8.0,22.0,74,0.00,,,0.00,Wunderground v.1.15,2013-01-30 04:59:00,
2013-01-29 23:00:00,72.0,63.3,28.97,East,79,13.0,13.0,74,0.00,,,0.00,Wunderground v.1.15,2013-01-30 05:00:00,
2013-01-29 23:02:00,72.0,63.3,28.97,East,101,6.0,22.0,74,0.00,,,0.00,Wunderground v.1.15,2013-01-30 05:02:00,
2013-01-29 23:03:00,72.0,63.3,28.97,SE,132,9.0,22.0,74,0.00,,,0.00,Wunderground v.1.15,2013-01-30 05:03:00,
2013-01-29 23:08:00,72.1,63.0,28.97,East,88,10.0,22.0,73,0.00,,,0.00,Wunderground v.1.15,2013-01-30 05:08:00,
2013-01-29 23:13:00,72.3,63.2,28.97,East,84,14.0,26.0,73,0.00,,,0.00,Wunderground v.1.15,2013-01-30 05:13:00,
2013-01-29 23:18:00,72.3,63.2,28.97,ENE,75,20.0,26.0,73,0.00,,,0.00,Wunderground v.1.15,2013-01-30 05:18:00,
2013-01-29 23:23:00,72.1,63.4,28.97,South,170,8.0,20.0,74,0.00,,,0.00,Wunderground v.1.15,2013-01-30 05:23:00,
2013-01-29 23:28:00,71.8,63.8,28.98,East,92,7.0,24.0,76,0.00,,,0.00,Wunderground v.1.15,2013-01-30 05:28:00,
2013-01-29 23:33:00,71.1,63.9,28.97,East,88,18.0,21.0,78,0.00,,,0.01,Wunderground v.1.15,2013-01-30 05:33:00,
2013-01-29 23:38:00,70.3,64.2,28.97,ESE,108,5.0,25.0,81,0.16,,,0.03,Wunderground v.1.15,2013-01-30 05:38:00,
2013-01-29 23:43:00,69.6,63.9,28.98,SE,129,8.0,15.0,82,0.31,,,0.06,Wunderground v.1.15,2013-01-30 05:43:00,
2013-01-29 23:48:00,63.8,56.1,29.06,WSW,256,21.0,45.0,76,2.22,,,0.10,Wunderground v.1.15,2013-01-30 05:48:00,
2013-01-29 23:53:00,57.2,53.7,29.06,West,274,10.0,28.0,88,0.94,,,0.26,Wunderground v.1.15,2013-01-30 05:53:00,
2013-01-29 23:58:00,55.3,53.3,29.04,ESE,117,9.0,28.0,93,0.30,,,0.32,Wunderground v.1.15,2013-01-30 05:58:00,